Wetterdaten: aktuell Montag, 27.05.2024 07:30
Datum Zeit Temp. A. Feuchte A. Luftdruck Regen Wind Richtung Richtung Sonnenschein ET UV Solar Windben Empfang
27.05.2024 07:30 13,2 C 73 % 1018,4 hPa 0,0 l/m 0,0 km/h - - 0 0 min 0,000 mm 0,0 UV-I 70 W/m 0,0 km/h 100 %
27.05.2024 07:25 13,2 C 73 % 1018,3 hPa 0,0 l/m 0,0 km/h - - 0 0 min 0,000 mm 0,0 UV-I 86 W/m 0,0 km/h 100 %
27.05.2024 07:20 13,1 C 73 % 1018,3 hPa 0,0 l/m 0,0 km/h - - 0 0 min 0,000 mm 0,0 UV-I 86 W/m 0,0 km/h 100 %
27.05.2024 07:15 13,0 C 72 % 1018,3 hPa 0,0 l/m 0,0 km/h - - 0 0 min 0,000 mm 0,0 UV-I 72 W/m 0,0 km/h 100 %
27.05.2024 07:10 12,9 C 72 % 1018,3 hPa 0,0 l/m 0,0 km/h - - 0 0 min 0,000 mm 0,0 UV-I 58 W/m 0,0 km/h 100 %
27.05.2024 07:05 13,0 C 72 % 1018,3 hPa 0,2 l/m 0,0 km/h - - 0 0 min 0,000 mm 0,0 UV-I 44 W/m 0,0 km/h 100 %
27.05.2024 07:00 12,9 C 71 % 1018,3 hPa 0,0 l/m 0,0 km/h - - 0 0 min 0,025 mm 0,0 UV-I 44 W/m 0,0 km/h 100 %
27.05.2024 06:55 12,9 C 71 % 1018,4 hPa 0,0 l/m 0,0 km/h - - 0 0 min 0,000 mm 0,0 UV-I 54 W/m 0,0 km/h 100 %
27.05.2024 06:50 12,9 C 71 % 1018,3 hPa 0,0 l/m 0,0 km/h - - 0 0 min 0,000 mm 0,0 UV-I 53 W/m 0,0 km/h 96 %
27.05.2024 06:45 12,9 C 71 % 1018,3 hPa 0,2 l/m 0,0 km/h - - 0 0 min 0,000 mm 0,0 UV-I 39 W/m 0,0 km/h 99 %
27.05.2024 06:40 12,9 C 71 % 1018,3 hPa 0,0 l/m 0,0 km/h - - 0 0 min 0,000 mm 0,0 UV-I 28 W/m 0,0 km/h 100 %
27.05.2024 06:35 12,8 C 71 % 1018,2 hPa 0,0 l/m 0,0 km/h - - 0 0 min 0,000 mm 0,0 UV-I 21 W/m 0,0 km/h 100 %
27.05.2024 06:30 12,7 C 70 % 1018,2 hPa 0,0 l/m 0,0 km/h - - 0 0 min 0,000 mm 0,0 UV-I 23 W/m 0,0 km/h 100 %
27.05.2024 06:25 12,6 C 70 % 1018,1 hPa 0,0 l/m 0,0 km/h - - 0 0 min 0,000 mm 0,0 UV-I 25 W/m 0,0 km/h 100 %
27.05.2024 06:20 12,6 C 70 % 1018,1 hPa 0,0 l/m 0,0 km/h - - 0 0 min 0,000 mm 0,0 UV-I 26 W/m 0,0 km/h 100 %
27.05.2024 06:15 12,6 C 70 % 1018,0 hPa 0,0 l/m 0,0 km/h - - 0 0 min 0,000 mm 0,0 UV-I 26 W/m 0,0 km/h 100 %
27.05.2024 06:10 12,7 C 70 % 1018,0 hPa 0,0 l/m 0,0 km/h - - 0 0 min 0,000 mm 0,0 UV-I 23 W/m 0,0 km/h 100 %
27.05.2024 06:05 12,7 C 70 % 1018,0 hPa 0,0 l/m 0,0 km/h - - 0 0 min 0,000 mm 0,0 UV-I 26 W/m 0,0 km/h 100 %
27.05.2024 06:00 12,6 C 70 % 1018,0 hPa 0,0 l/m 0,0 km/h - - 0 0 min 0,000 mm 0,0 UV-I 26 W/m 0,0 km/h 100 %
27.05.2024 05:55 12,6 C 70 % 1017,9 hPa 0,0 l/m 0,0 km/h - - 0 0 min 0,000 mm 0,0 UV-I 19 W/m 0,0 km/h 100 %
27.05.2024 05:50 12,4 C 69 % 1017,9 hPa 0,0 l/m 0,0 km/h - - 0 0 min 0,000 mm 0,0 UV-I 14 W/m 0,0 km/h 97 %
27.05.2024 05:45 12,4 C 69 % 1017,8 hPa 0,0 l/m 0,0 km/h - - 0 0 min 0,000 mm 0,0 UV-I 11 W/m 0,0 km/h 100 %
27.05.2024 05:40 12,4 C 69 % 1017,8 hPa 0,0 l/m 0,0 km/h - - 0 0 min 0,000 mm 0,0 UV-I 7 W/m 0,0 km/h 100 %
27.05.2024 05:35 12,4 C 69 % 1017,7 hPa 0,0 l/m 0,0 km/h - - 0 0 min 0,000 mm 0,0 UV-I 5 W/m 0,0 km/h 100 %
27.05.2024 05:30 12,4 C 69 % 1017,8 hPa 0,0 l/m 0,0 km/h - - 0 0 min 0,000 mm 0,0 UV-I 0 W/m 0,0 km/h 100 %
27.05.2024 05:25 12,4 C 68 % 1017,8 hPa 0,0 l/m 0,0 km/h - - 0 0 min 0,000 mm 0,0 UV-I 0 W/m 0,0 km/h 100 %
27.05.2024 05:20 12,6 C 68 % 1017,7 hPa 0,0 l/m 0,0 km/h - - 0 0 min 0,000 mm 0,0 UV-I 0 W/m 0,0 km/h 100 %
27.05.2024 05:15 12,7 C 68 % 1017,7 hPa 0,0 l/m 0,0 km/h - - 0 0 min 0,000 mm 0,0 UV-I 0 W/m 0,0 km/h 100 %
27.05.2024 05:10 12,7 C 68 % 1017,7 hPa 0,0 l/m 0,0 km/h - - 0 0 min 0,000 mm 0,0 UV-I 0 W/m 0,0 km/h 100 %
27.05.2024 05:05 12,7 C 68 % 1017,8 hPa 0,0 l/m 0,0 km/h - - 0 0 min 0,000 mm 0,0 UV-I 0 W/m 0,0 km/h 100 %
27.05.2024 05:00 12,7 C 68 % 1017,7 hPa 0,0 l/m 0,0 km/h - - 0 0 min 0,000 mm 0,0 UV-I 0 W/m 0,0 km/h 100 %
27.05.2024 04:55 12,7 C 68 % 1017,7 hPa 0,0 l/m 0,0 km/h - - 0 0 min 0,000 mm 0,0 UV-I 0 W/m 0,0 km/h 100 %
27.05.2024 04:50 12,7 C 68 % 1017,7 hPa 0,0 l/m 0,0 km/h - - 0 0 min 0,000 mm 0,0 UV-I 0 W/m 0,0 km/h 100 %
27.05.2024 04:45 12,7 C 68 % 1017,6 hPa 0,0 l/m 0,0 km/h - - 0 0 min 0,000 mm 0,0 UV-I 0 W/m 0,0 km/h 96 %
27.05.2024 04:40 12,7 C 68 % 1017,7 hPa 0,0 l/m 0,0 km/h - - 0 0 min 0,000 mm 0,0 UV-I 0 W/m 0,0 km/h 100 %
27.05.2024 04:35 12,7 C 67 % 1017,6 hPa 0,0 l/m 0,0 km/h - - 0 0 min 0,000 mm 0,0 UV-I 0 W/m 0,0 km/h 100 %
27.05.2024 04:30 12,8 C 67 % 1017,5 hPa 0,0 l/m 0,0 km/h - - 0 0 min 0,000 mm 0,0 UV-I 0 W/m 0,0 km/h 100 %
27.05.2024 04:25 12,8 C 67 % 1017,5 hPa 0,0 l/m 0,0 km/h - - 0 0 min 0,000 mm 0,0 UV-I 0 W/m 0,0 km/h 100 %
27.05.2024 04:20 12,8 C 67 % 1017,5 hPa 0,0 l/m 0,0 km/h - - 0 0 min 0,000 mm 0,0 UV-I 0 W/m 0,0 km/h 100 %
27.05.2024 04:15 12,9 C 67 % 1017,4 hPa 0,0 l/m 0,0 km/h - - 0 0 min 0,000 mm 0,0 UV-I 0 W/m 0,0 km/h 100 %
27.05.2024 04:10 12,9 C 67 % 1017,5 hPa 0,0 l/m 0,0 km/h - - 0 0 min 0,000 mm 0,0 UV-I 0 W/m 0,0 km/h 100 %
27.05.2024 04:05 13,0 C 66 % 1017,5 hPa 0,0 l/m 0,0 km/h - - 0 0 min 0,000 mm 0,0 UV-I 0 W/m 0,0 km/h 100 %
27.05.2024 04:00 12,9 C 66 % 1017,6 hPa 0,0 l/m 0,0 km/h - - 0 0 min 0,000 mm 0,0 UV-I 0 W/m 0,0 km/h 100 %
27.05.2024 03:55 13,1 C 66 % 1017,5 hPa 0,0 l/m 0,0 km/h - - 0 0 min 0,000 mm 0,0 UV-I 0 W/m 0,0 km/h 100 %
27.05.2024 03:50 13,1 C 66 % 1017,4 hPa 0,0 l/m 0,0 km/h - - 0 0 min 0,000 mm 0,0 UV-I 0 W/m 0,0 km/h 100 %
27.05.2024 03:45 13,2 C 66 % 1017,4 hPa 0,0 l/m 0,0 km/h - - 0 0 min 0,000 mm 0,0 UV-I 0 W/m 0,0 km/h 97 %
27.05.2024 03:40 13,2 C 66 % 1017,4 hPa 0,0 l/m 0,0 km/h - - 0 0 min 0,000 mm 0,0 UV-I 0 W/m 0,0 km/h 100 %
27.05.2024 03:35 13,2 C 66 % 1017,5 hPa 0,0 l/m 0,0 km/h - - 0 0 min 0,000 mm 0,0 UV-I 0 W/m 0,0 km/h 100 %
27.05.2024 03:30 13,2 C 65 % 1017,5 hPa 0,0 l/m 0,0 km/h - - 0 0 min 0,000 mm 0,0 UV-I 0 W/m 0,0 km/h 100 %
27.05.2024 03:25 13,2 C 65 % 1017,5 hPa 0,0 l/m 0,0 km/h - - 0 0 min 0,000 mm 0,0 UV-I 0 W/m 0,0 km/h 100 %
27.05.2024 03:20 13,3 C 65 % 1017,5 hPa 0,0 l/m 0,0 km/h - - 0 0 min 0,000 mm 0,0 UV-I 0 W/m 0,0 km/h 100 %
27.05.2024 03:15 13,3 C 65 % 1017,5 hPa 0,0 l/m 0,0 km/h - - 0 0 min 0,000 mm 0,0 UV-I 0 W/m 0,0 km/h 100 %
27.05.2024 03:10 13,4 C 64 % 1017,5 hPa 0,0 l/m 0,0 km/h - - 0 0 min 0,000 mm 0,0 UV-I 0 W/m 0,0 km/h 100 %
27.05.2024 03:05 13,6 C 64 % 1017,6 hPa 0,0 l/m 0,0 km/h - - 0 0 min 0,000 mm 0,0 UV-I 0 W/m 0,0 km/h 100 %
27.05.2024 03:00 13,7 C 64 % 1017,6 hPa 0,0 l/m 0,0 km/h - - 0 0 min 0,000 mm 0,0 UV-I 0 W/m 0,0 km/h 100 %
27.05.2024 02:55 13,7 C 64 % 1017,6 hPa 0,0 l/m 0,0 km/h - - 0 0 min 0,000 mm 0,0 UV-I 0 W/m 0,0 km/h 100 %
27.05.2024 02:50 13,8 C 64 % 1017,6 hPa 0,0 l/m 0,0 km/h - - 0 0 min 0,000 mm 0,0 UV-I 0 W/m 0,0 km/h 100 %
27.05.2024 02:45 13,8 C 64 % 1017,6 hPa 0,0 l/m 0,0 km/h - - 0 0 min 0,000 mm 0,0 UV-I 0 W/m 0,0 km/h 96 %
27.05.2024 02:40 13,8 C 64 % 1017,7 hPa 0,0 l/m 0,0 km/h - - 0 0 min 0,000 mm 0,0 UV-I 0 W/m 0,0 km/h 99 %
27.05.2024 02:35 13,8 C 64 % 1017,7 hPa 0,0 l/m 0,0 km/h - - 0 0 min 0,000 mm 0,0 UV-I 0 W/m 0,0 km/h 100 %
27.05.2024 02:30 13,7 C 64 % 1017,6 hPa 0,0 l/m 0,0 km/h - - 0 0 min 0,000 mm 0,0 UV-I 0 W/m 0,0 km/h 100 %
27.05.2024 02:25 13,7 C 64 % 1017,7 hPa 0,0 l/m 0,0 km/h - - 0 0 min 0,000 mm 0,0 UV-I 0 W/m 0,0 km/h 100 %
27.05.2024 02:20 13,7 C 64 % 1017,7 hPa 0,0 l/m 0,0 km/h - - 0 0 min 0,000 mm 0,0 UV-I 0 W/m 0,0 km/h 100 %
27.05.2024 02:15 13,7 C 63 % 1017,7 hPa 0,0 l/m 0,0 km/h - - 0 0 min 0,000 mm 0,0 UV-I 0 W/m 0,0 km/h 100 %
27.05.2024 02:10 13,8 C 63 % 1017,7 hPa 0,0 l/m 0,0 km/h - - 0 0 min 0,000 mm 0,0 UV-I 0 W/m 0,0 km/h 100 %
27.05.2024 02:05 13,9 C 63 % 1017,7 hPa 0,0 l/m 0,0 km/h - - 0 0 min 0,000 mm 0,0 UV-I 0 W/m 0,0 km/h 100 %
27.05.2024 02:00 13,9 C 63 % 1017,7 hPa 0,0 l/m 0,0 km/h - - 0 0 min 0,000 mm 0,0 UV-I 0 W/m 0,0 km/h 100 %
27.05.2024 01:55 13,9 C 63 % 1017,8 hPa 0,0 l/m 0,0 km/h - - 0 0 min 0,000 mm 0,0 UV-I 0 W/m 0,0 km/h 100 %
27.05.2024 01:50 13,9 C 63 % 1017,8 hPa 0,0 l/m 0,0 km/h - - 0 0 min 0,000 mm 0,0 UV-I 0 W/m 0,0 km/h 100 %
27.05.2024 01:45 13,9 C 63 % 1017,8 hPa 0,0 l/m 0,0 km/h - - 0 0 min 0,000 mm 0,0 UV-I 0 W/m 0,0 km/h 100 %
27.05.2024 01:40 13,9 C 63 % 1017,8 hPa 0,0 l/m 0,0 km/h - - 0 0 min 0,000 mm 0,0 UV-I 0 W/m 0,0 km/h 96 %
27.05.2024 01:35 13,9 C 62 % 1017,8 hPa 0,0 l/m 0,0 km/h - - 0 0 min 0,000 mm 0,0 UV-I 0 W/m 0,0 km/h 100 %
27.05.2024 01:30 13,9 C 62 % 1017,7 hPa 0,0 l/m 0,0 km/h - - 0 0 min 0,000 mm 0,0 UV-I 0 W/m 0,0 km/h 100 %
27.05.2024 01:25 13,9 C 62 % 1017,8 hPa 0,0 l/m 0,0 km/h - - 0 0 min 0,000 mm 0,0 UV-I 0 W/m 0,0 km/h 100 %
27.05.2024 01:20 14,0 C 62 % 1017,9 hPa 0,0 l/m 0,0 km/h - - 0 0 min 0,000 mm 0,0 UV-I 0 W/m 0,0 km/h 100 %
27.05.2024 01:15 14,1 C 62 % 1017,9 hPa 0,0 l/m 0,0 km/h - - 0 0 min 0,000 mm 0,0 UV-I 0 W/m 0,0 km/h 100 %
27.05.2024 01:10 14,1 C 62 % 1017,8 hPa 0,0 l/m 0,0 km/h - - 0 0 min 0,000 mm 0,0 UV-I 0 W/m 0,0 km/h 100 %
27.05.2024 01:05 14,1 C 62 % 1017,9 hPa 0,0 l/m 0,0 km/h - - 0 0 min 0,000 mm 0,0 UV-I 0 W/m 0,0 km/h 98 %
27.05.2024 01:00 14,2 C 62 % 1017,8 hPa 0,0 l/m 0,0 km/h - - 0 0 min 0,000 mm 0,0 UV-I 0 W/m 0,0 km/h 100 %
27.05.2024 00:55 14,3 C 62 % 1017,8 hPa 0,0 l/m 0,0 km/h - - 0 0 min 0,000 mm 0,0 UV-I 0 W/m 0,0 km/h 100 %
27.05.2024 00:50 14,4 C 62 % 1017,9 hPa 0,0 l/m 0,0 km/h - - 0 0 min 0,000 mm 0,0 UV-I 0 W/m 0,0 km/h 100 %
27.05.2024 00:45 14,4 C 62 % 1017,9 hPa 0,0 l/m 0,0 km/h - - 0 0 min 0,000 mm 0,0 UV-I 0 W/m 0,0 km/h 100 %
27.05.2024 00:40 14,6 C 61 % 1017,9 hPa 0,0 l/m 0,0 km/h - - 0 0 min 0,000 mm 0,0 UV-I 0 W/m 0,0 km/h 96 %
27.05.2024 00:35 14,6 C 61 % 1017,8 hPa 0,0 l/m 0,0 km/h - - 0 0 min 0,000 mm 0,0 UV-I 0 W/m 0,0 km/h 100 %
27.05.2024 00:30 14,7 C 62 % 1017,7 hPa 0,0 l/m 0,0 km/h - - 0 0 min 0,000 mm 0,0 UV-I 0 W/m 0,0 km/h 100 %
27.05.2024 00:25 14,7 C 62 % 1017,7 hPa 0,0 l/m 0,0 km/h - - 0 0 min 0,000 mm 0,0 UV-I 0 W/m 0,0 km/h 100 %
27.05.2024 00:20 14,7 C 61 % 1017,7 hPa 0,0 l/m 0,0 km/h - - 0 0 min 0,000 mm 0,0 UV-I 0 W/m 0,0 km/h 100 %
27.05.2024 00:15 14,8 C 61 % 1017,7 hPa 0,0 l/m 0,0 km/h - - 0 0 min 0,000 mm 0,0 UV-I 0 W/m 0,0 km/h 100 %
27.05.2024 00:10 14,9 C 61 % 1017,6 hPa 0,0 l/m 0,0 km/h - - 0 0 min 0,000 mm 0,0 UV-I 0 W/m 0,0 km/h 100 %
27.05.2024 00:05 15,0 C 60 % 1017,6 hPa 0,0 l/m 0,0 km/h - - 0 0 min 0,000 mm 0,0 UV-I 0 W/m 0,0 km/h 99 %
27.05.2024 00:00 15,2 C 60 % 1017,5 hPa 0,0 l/m 0,0 km/h - - 0 0 min 0,000 mm 0,0 UV-I 0 W/m 0,0 km/h 100 %
_ Min-Zeit 05:25 00:00 03:40 - 00:00 - - - - - - 00:00 00:40
Minimum _ 12,4 C 60 % 1017,4 hPa - 0,0 km/h - - - - - - 0,0 km/h 96 %
_ Max-Zeit 00:00 07:20 06:55 06:45 00:00 - - 00:00 07:00 00:00 07:20 00:00 00:00
Maximum _ 15,4 C 73 % 1018,4 hPa 0,2 l/m 0,0 km/h
- -
- - 0 min 0,025 mm 0,0 UV-I 86 W/m 0,0 km/h
- -
100 %
Durchschnitt _ 13,4 C 66 % 1017,8 hPa #0,4 l/m 0,0 km/h - - - #0 min. #0,025 mm 0,0 UV-I 37 W/m 0,0 km/h 100 %